TimePST,TemperatureF,Dew PointF,Humidity,Sea Level PressureIn,VisibilityMPH,Wind Direction,Wind SpeedMPH,Gust SpeedMPH,PrecipitationIn,Events,Conditions,WindDirDegrees,DateUTC
12:00 AM,28.4,24.8,86,30.15,20.0,North,3.5,-,N/A,,Clear,360,2013-03-08 08:00:00
1:00 AM,28.4,24.8,86,30.15,15.0,North,3.5,-,N/A,,Clear,360,2013-03-08 09:00:00
2:00 AM,24.8,24.8,100,30.15,15.0,Calm,Calm,-,N/A,,Clear,0,2013-03-08 10:00:00
3:00 AM,26.6,24.8,93,30.15,20.0,NNW,3.5,-,N/A,,Clear,340,2013-03-08 11:00:00
4:00 AM,24,22,91,30.15,19,North,3.5,,,,,0,2013-03-08 12:00:00
4:00 AM,24.8,23.0,93,30.15,20.0,North,2.3,-,N/A,,Clear,360,2013-03-08 12:00:00
5:00 AM,24.8,24.8,100,30.15,20.0,Calm,Calm,-,N/A,,Clear,0,2013-03-08 13:00:00
6:00 AM,23.0,23.0,100,30.16,20.0,Calm,Calm,-,N/A,,Partly Cloudy,0,2013-03-08 14:00:00
7:00 AM,23.0,23.0,100,30.17,20.0,Calm,Calm,-,N/A,,Scattered Clouds,0,2013-03-08 15:00:00
8:00 AM,24.8,23.0,93,30.17,20.0,NNW,3.5,-,N/A,,Mostly Cloudy,330,2013-03-08 16:00:00
9:00 AM,28.4,26.6,93,30.18,20.0,North,4.6,-,N/A,,Mostly Cloudy,10,2013-03-08 17:00:00
10:00 AM,32,28,78,30.19,19,WNW,2.3,,,,Scattered Clouds,300,2013-03-08 18:00:00
10:00 AM,32.0,28.4,87,30.19,20.0,WNW,3.5,-,N/A,,Mostly Cloudy,300,2013-03-08 18:00:00
11:00 AM,33.8,26.6,75,30.20,20.0,Calm,Calm,-,N/A,,Mostly Cloudy,0,2013-03-08 19:00:00
12:00 PM,37.4,26.6,65,30.19,20.0,Calm,Calm,-,N/A,,Mostly Cloudy,0,2013-03-08 20:00:00
1:00 PM,41.0,28.4,61,30.18,20.0,SSE,6.9,-,N/A,,Mostly Cloudy,160,2013-03-08 21:00:00
2:00 PM,44.6,28.4,53,30.17,20.0,SW,4.6,-,N/A,,Mostly Cloudy,230,2013-03-08 22:00:00
3:00 PM,44.6,28.4,53,30.17,20.0,SW,4.6,-,N/A,,Mostly Cloudy,230,2013-03-08 23:00:00
4:00 PM,46,27,35,30.18,19,South,11.5,,,,Partly Cloudy,170,2013-03-09 00:00:00
4:00 PM,46.4,26.6,46,30.18,20.0,South,11.5,-,N/A,,Mostly Cloudy,180,2013-03-09 00:00:00
5:00 PM,44.6,26.6,49,30.18,20.0,South,13.8,-,N/A,,Mostly Cloudy,180,2013-03-09 01:00:00
6:00 PM,41.0,26.6,57,30.19,20.0,South,11.5,-,N/A,,Mostly Cloudy,180,2013-03-09 02:00:00
7:00 PM,37.4,26.6,65,30.21,20.0,SSE,8.1,-,N/A,,Scattered Clouds,160,2013-03-09 03:00:00
8:00 PM,35.6,28.4,75,30.22,20.0,SSW,3.5,-,N/A,,Clear,200,2013-03-09 04:00:00
9:00 PM,35.6,28.4,75,30.24,20.0,SSW,4.6,-,N/A,,Clear,210,2013-03-09 05:00:00
10:00 PM,34,29,75,30.24,19,Calm,Calm,,,,,,2013-03-09 06:00:00
10:00 PM,33.8,28.4,81,30.24,20.0,Calm,Calm,-,N/A,,Clear,0,2013-03-09 06:00:00
11:00 PM,28.4,26.6,93,30.25,20.0,East,3.5,-,N/A,,Clear,100,2013-03-09 07:00:00